Dewpoint
22 22 22 22 23 24 24 22 23 22 23 23 23 23 24 23 23 23 24 25 26 27
24 22 21 21 22 23 23 20 22 20 20 21 21 21 21 20 20 21 22 24 25 26
26 25 23 21 21 21 22 22 22 21 18 18 19 19 19 19 19 19 21 23 24 24
26 26 24 21 21 21 22 22 22 21 17 17 17 18 18 18 18 18 19 21 22 23
25 26 25 21 20 20 20 21 21 21 18 17 17 17 17 17 17 17 18 20 21 21
27 24 25 19 17 18 17 17 18 19 19 16 16 16 16 16 16 16 17 19 20 21
24 25 26 24 19 17 17 17 17 18 19 19 16 15 17 16 15 16 16 17 20 20
22 21 20 19 18 18 17 17 18 19 20 21 20 19 16 17 17 17 17 17 18 19
21 20 18 17 16 17 17 17 18 18 19 18 18 17 17 16 18 19 17 17 16 17
20 19 18 16 16 17 17 17 18 18 18 18 16 17 17 17 17 18 18 16 15 15
19 18 17 16 17 18 18 18 18 19 19 18 18 16 16 16 16 17 18 17 14 14
19 18 18 17 18 19 19 18 16 17 17 17 18 18 18 16 16 16 17 17 16 14
21 20 19 19 20 21 20 18 16 14 16 16 17 18 18 16 17 17 17 17 17 14
22 21 21 22 22 23 22 16 12 11 12 13 15 16 17 17 16 15 16 16 14 14
Wind_Speed
11 11 9 10 10 10 9 10 13 13 13 14 14 14 13 13 15 17 16 19 19 15
10 11 10 11 10 8 9 10 12 13 14 14 14 15 13 15 17 16 16 17 19 18
8 9 10 10 11 10 9 10 12 13 14 15 15 16 16 16 17 17 17 16 21 21
8 9 9 11 10 9 9 11 12 13 14 15 16 16 16 17 18 18 19 20 23 23
8 8 10 11 9 9 11 10 10 11 12 13 15 15 16 17 16 17 19 20 22 25
6 9 11 11 10 11 12 13 13 12 11 12 13 14 17 15 14 15 18 17 20 20
10 11 10 9 8 10 10 13 15 14 11 6 12 15 12 15 16 17 18 17 18 19
14 12 11 10 8 8 9 9 10 13 15 9 10 12 12 13 15 15 16 16 17 20
14 12 10 9 9 9 8 8 8 11 11 13 12 16 16 14 13 13 16 17 17 17
14 12 11 10 9 9 8 7 9 9 11 12 12 15 17 16 14 14 15 17 17 18
14 12 11 10 10 9 7 8 8 10 11 10 13 14 14 14 13 14 15 14 18 18
14 14 12 12 11 9 9 9 9 10 11 11 9 14 13 12 11 13 15 15 15 17
13 14 13 12 11 8 7 8 7 9 9 12 11 14 16 13 10 13 12 12 13 21
12 13 12 11 8 9 9 9 10 11 9 11 11 11 13 14 11 11 12 12 12 11
Wind_Direction
74 63 56 54 47 36 24 18 9 13 13 12 10 10 12 17 12 11 7 358 354 344
79 69 59 56 50 36 20 28 16 23 20 18 18 18 19 23 15 6 4 9 3 1
103 84 69 61 54 42 23 24 25 28 28 26 24 19 23 24 14 15 9 10 17 16
111 103 82 65 51 45 36 29 34 35 36 36 33 26 29 28 15 15 15 14 24 20
114 119 97 78 63 55 52 38 38 37 45 45 41 32 35 34 18 12 14 19 26 26
127 135 122 109 82 66 58 47 41 43 47 49 44 36 32 27 20 17 13 11 20 22
110 126 136 151 104 79 60 46 37 35 39 66 58 47 33 29 23 26 17 14 23 23
130 122 118 117 106 83 65 47 36 37 36 48 54 51 40 32 25 33 29 23 26 35
136 132 127 120 107 87 75 55 42 49 46 42 51 50 49 42 32 29 41 36 31 34
143 140 134 123 109 99 86 71 54 51 57 53 54 53 50 46 42 38 40 43 38 38
149 145 139 131 120 110 94 76 63 49 40 56 58 54 51 44 41 40 39 48 46 43
154 151 151 147 139 123 104 83 71 55 48 45 47 55 49 47 42 42 36 34 55 48
153 156 161 155 149 140 120 91 80 71 46 45 33 63 54 49 49 46 35 29 28 53
154 158 159 158 153 143 121 107 96 84 56 46 33 47 59 55 49 49 44 37 31 37